Pittsburgh Allegheny Co., PA

7:39 PM EDT on May 26, 2017 (GMT -0400)
Allegheny County

Weather History for KAGC - March, 2014

Change the Weather History Date:

Sunday, March 30, 2014

  Actual Average Record
Temperature  
Mean Temperature 40 °F -  
Max Temperature 48 °F 57 °F 84 °F (1998)
Min Temperature 33 °F 36 °F 25 °F (2003)
Degree Days  
Heating Degree Days 24    
Moisture  
Dew Point 29 °F    
Average Humidity 74    
Maximum Humidity 93    
Minimum Humidity 42    
Precipitation  
Precipitation 0.08 in - - ()
Sea Level Pressure  
Sea Level Pressure 29.90 in    
Wind  
Wind Speed 15 mph (NNW)    
Max Wind Speed 25 mph    
Max Gust Speed 34 mph    
Visibility 6 miles    
Events Fog , Snow    
Averages and records for this station are not official NWS values.
T = Trace of Precipitation, MM = Missing Value Source: NWS Daily Summary

Daily Weather History Graph

Daily Weather History Graph

Search for Another Location

Airport or City:

Trip Planner

Search our weather history database for the weather conditions in past years. The results will help you decide how hot, cold, wet, or windy it might be!

Date:

Astronomy

Mar. 30, 2014 Rise Set
Actual Time 7:06 AM EDT 7:42 PM EDT
Civil Twilight 6:39 AM EDT 8:09 PM EDT
Nautical Twilight 6:07 AM EDT 8:41 PM EDT
Astronomical Twilight 5:33 AM EDT 9:15 PM EDT
Moon 6:51 AM EDT (3/30) 7:53 PM EDT (3/30)
Length of Visible Light 13h 30m
Length of Day
12h 35m
Waning Crescent, 0% of the Moon is Illuminated
Mar 30
Waning Crescent
Mar 30
New
Apr 7
First Quarter
Apr 15
Full
Apr 22
Last Quarter

Hourly Weather History & Observations

Time (EDT) Temp. Windchill Dew Point Humidity Pressure Visibility Wind Dir Wind Speed Gust Speed Precip Events Conditions
12:21 AM 35.6 °F 25.5 °F 33.8 °F 93% 29.76 in 2.5 mi North 17.3 mph 26.5 mph 0.02 in Snow Light Snow
12:46 AM 35.6 °F 27.5 °F 33.8 °F 93% 29.77 in 4.0 mi NNW 11.5 mph 24.2 mph 0.04 in Snow Light Snow
12:53 AM 36.0 °F 27.1 °F 33.1 °F 89% 29.80 in 5.0 mi NNW 13.8 mph 19.6 mph 0.04 in   Overcast
1:32 AM 35.6 °F 27.1 °F 32.0 °F 87% 29.78 in 2.5 mi NNW 12.7 mph 19.6 mph 0.01 in Snow Light Snow
1:53 AM 34.0 °F 24.6 °F 32.0 °F 92% 29.81 in 2.0 mi NNW 13.8 mph 21.9 mph 0.01 in Snow Light Snow
2:34 AM 33.8 °F 23.9 °F 30.2 °F 87% 29.79 in 1.8 mi NNW 15.0 mph 23.0 mph 0.00 in Snow Light Snow
2:44 AM 33.8 °F 23.9 °F 30.2 °F 87% 29.79 in 2.5 mi NNW 15.0 mph 25.3 mph 0.00 in Snow Light Snow
2:53 AM 34.0 °F 24.6 °F 30.9 °F 89% 29.82 in 3.0 mi NNW 13.8 mph 23.0 mph 0.00 in   Overcast
3:10 AM 33.8 °F 24.8 °F 30.2 °F 87% 29.79 in 2.0 mi NNW 12.7 mph 20.7 mph N/A   Overcast
3:25 AM 33.8 °F 24.8 °F 30.2 °F 87% 29.79 in 1.5 mi NNW 12.7 mph - N/A   Overcast
3:53 AM 33.1 °F 23.0 °F 30.0 °F 89% 29.83 in 1.0 mi NNW 15.0 mph 24.2 mph 0.01 in Snow Light Snow
4:08 AM 33.8 °F 23.5 °F 30.2 °F 87% 29.80 in 0.8 mi NNW 16.1 mph 24.2 mph 0.00 in Snow Light Snow
4:53 AM 33.1 °F 22.2 °F 30.0 °F 89% 29.84 in 0.5 mi NNW 17.3 mph 26.5 mph 0.01 in Fog , Snow Light Snow
5:26 AM 33.8 °F 25.3 °F 30.2 °F 87% 29.82 in 1.0 mi NNW 11.5 mph 25.3 mph 0.01 in Snow Light Snow
5:39 AM 33.8 °F 24.8 °F 30.2 °F 87% 29.81 in 2.0 mi NNW 12.7 mph 26.5 mph 0.01 in Snow Light Snow
5:53 AM 33.1 °F 22.2 °F 30.0 °F 89% 29.86 in 4.0 mi NNW 17.3 mph 24.2 mph 0.01 in   Overcast
6:53 AM 33.1 °F 21.2 °F 28.9 °F 85% 29.88 in 10.0 mi NNW 20.7 mph 27.6 mph N/A   Overcast
7:53 AM 33.1 °F 21.9 °F 28.9 °F 85% 29.91 in 4.0 mi NW 18.4 mph 28.8 mph N/A   Overcast
8:53 AM 33.1 °F 22.2 °F 28.0 °F 82% 29.94 in 6.0 mi NNW 17.3 mph 26.5 mph N/A   Haze
9:53 AM 33.1 °F 21.9 °F 28.0 °F 82% 29.96 in 6.0 mi NNW 18.4 mph 24.2 mph N/A   Haze
10:53 AM 34.0 °F 24.2 °F 27.0 °F 75% 29.98 in 8.0 mi NW 15.0 mph 25.3 mph N/A   Overcast
11:24 AM 33.8 °F 23.2 °F 26.6 °F 75% 29.93 in 9.0 mi NNW 17.3 mph 28.8 mph N/A   Overcast
11:53 AM 35.1 °F 25.5 °F 27.0 °F 72% 29.97 in 10.0 mi NW 15.0 mph 28.8 mph N/A   Overcast
12:53 PM 36.0 °F 26.0 °F 27.0 °F 70% 29.98 in 10.0 mi NNW 17.3 mph 24.2 mph N/A   Overcast
1:53 PM 42.1 °F 34.9 °F 30.0 °F 62% 29.97 in 10.0 mi NNW 13.8 mph 24.2 mph N/A   Overcast
2:46 PM 44.6 °F 35.5 °F 30.2 °F 57% 29.91 in 10.0 mi NNW 25.3 mph 34.5 mph N/A   Mostly Cloudy
2:53 PM 44.1 °F 36.8 °F 30.0 °F 58% 29.95 in 10.0 mi NNW 16.1 mph 34.5 mph N/A   Mostly Cloudy
3:53 PM 48.0 °F - 30.9 °F 52% 29.95 in 10.0 mi NW 18.4 mph 34.5 mph N/A   Scattered Clouds
4:53 PM 48.0 °F - 28.9 °F 48% 29.96 in 10.0 mi NNW 16.1 mph 29.9 mph N/A   Partly Cloudy
5:53 PM 48.0 °F - 28.9 °F 48% 29.98 in 10.0 mi NNW 18.4 mph 28.8 mph N/A   Clear
6:53 PM 46.0 °F 38.5 °F 25.0 °F 44% 30.01 in 10.0 mi NW 19.6 mph 27.6 mph N/A   Clear
7:53 PM 43.0 °F 35.7 °F 21.0 °F 42% 30.04 in 10.0 mi NW 15.0 mph 20.7 mph N/A   Clear
8:53 PM 41.0 °F 31.9 °F 21.0 °F 45% 30.06 in 10.0 mi NNW 19.6 mph 26.5 mph N/A   Clear
9:53 PM 39.0 °F 29.9 °F 21.0 °F 49% 30.10 in 10.0 mi NNW 17.3 mph 23.0 mph N/A   Clear
10:53 PM 37.0 °F 29.8 °F 21.9 °F 54% 30.11 in 10.0 mi NW 10.4 mph - N/A   Clear
11:53 PM 36.0 °F 29.6 °F 21.0 °F 55% 30.12 in 10.0 mi NW 8.1 mph - N/A   Clear